[[{"header":{"parameterUnit":"m.s-1","parameterCategory":1,"la1":30.2991,"la2":30.254,"lo1":-89.0895,"lo2":-89.0444,"dy":0.0017,"dx":0.0017,"nx":28,"ny":28,"refTime":"2024-08-16T03:00:00:Z","depth":0,"parameterNumber":2,"parameterNumberName":"U-component_of_WINDS"},"data":[0,0,0,0,0,0,0,0,0,0,0,0,0,0,0,0,0,0,0,0,0,0,0,0,0,0,0,0,0,0,0,0,0,0,0,0,0,0,0,0,0,0,0,0,0,0,0,0,0,0,0,0,0,0,0,0,0,0,0.2782,0.2782,0,0.2774,0.2774,0.2774,0.2723,0.2721,0.272,0.2719,0.2714,0.2715,0.2716,0,0,0,0,0,0,0,0,0,0,0,0,0,0.2753,0.2754,0.2782,0.2782,0.2782,0.2774,0.2774,0.2774,0.2723,0.2721,0.272,0.2718,0.2714,0.2715,0.2716,0,0,0,0,0,0,0,0,0,0,0,0,0,0.2758,0.2754,0.2782,0.2756,0.2753,0.2774,0.2774,0.2774,0.2723,0.2721,0.2719,0.2718,0.2713,0.2715,0.2716,0.2764,0,0,0.2721,0.2722,0,0,0,0,0,0,0,0,0.2758,0.2759,0.276,0.2757,0.2755,0.2747,0.2762,0.2771,0.2724,0.2735,0.2719,0.2717,0.2727,0.2727,0.273,0.2764,0.2764,0.2721,0.2722,0.2723,0.2724,0,0,0,0,0,0,0,0.2757,0.2759,0.2779,0.276,0.2757,0.2744,0.2742,0.2764,0.2742,0.2734,0.273,0.2729,0.2725,0.2729,0.273,0.2764,0.2721,0.2723,0.2724,0.2724,0.2832,0.2833,0,0,0,0,0,0,0.276,0.2759,0.278,0.2779,0.2751,0.2746,0.2744,0.2752,0.2741,0.2738,0.2731,0.2727,0.2727,0.2728,0.2729,0.2782,0.2723,0.2725,0.2725,0.283,0.2832,0.2834,0,0,0,0,0,0,0.276,0.2763,0.278,0.2768,0.2769,0.2748,0.2757,0.2753,0.2756,0.2739,0.2735,0.2738,0.2726,0.2727,0.2755,0.2781,0.2725,0.2727,0.2827,0.283,0.2833,0.2889,0,0,0,0,0,0,0.2759,0.2763,0.2781,0.2769,0.277,0.2806,0.2759,0.2754,0.2758,0.2753,0.2745,0.2742,0.2724,0.2752,0.2756,0.2782,0.2728,0.2825,0.2829,0.2832,0.2884,0.2893,0.29,0,0,0,0,0,0.2759,0.2799,0.2783,0.2785,0.2792,0.2807,0.2808,0.2786,0.2761,0.2779,0.2767,0.2742,0.2777,0.2756,0.276,0.2786,0.2823,0.2828,0.2832,0.2881,0.2891,0.29,0,0,0,0,0,0,0.2818,0.2797,0.2779,0.2816,0.2813,0.2799,0.2821,0.2798,0.2804,0.2799,0.2771,0.277,0.2801,0.2796,0.2773,0.2829,0.2796,0.2801,0.2832,0.2842,0.2849,0.285,0.2729,0,0,0,0,0,0.2835,0.2848,0.283,0.2864,0.2864,0.2842,0.2848,0.283,0.2827,0.2827,0.2817,0.2816,0.2826,0.2833,0.2842,0.2883,0.2879,0.2903,0.2911,0.2917,0.2922,0.294,0.295,0.2848,0.2848,0.2848,0,0,0.2871,0.2861,0.2872,0.2876,0.2872,0.2886,0.2842,0.286,0.287,0.283,0.2854,0.2847,0.2843,0.2876,0.2891,0.2874,0.2949,0.2923,0.2928,0.293,0.2945,0.2955,0.2964,0.2851,0.285,0.285,0,0,0.2943,0.2938,0.2965,0.296,0.2954,0.2938,0.2945,0.2932,0.2925,0.2949,0.2918,0.2929,0.2948,0.2945,0.2947,0.3013,0.2989,0.3016,0.3059,0.3076,0.3084,0.3091,0.3113,0.3121,0.3021,0.3022,0.3022,0,0.299,0.3009,0.2982,0.3,0.3002,0.2963,0.2989,0.2987,0.2984,0.2986,0.2966,0.2986,0.2981,0.3011,0.3027,0.303,0.3035,0.3018,0.3085,0.3092,0.3098,0.3118,0.3127,0.3025,0.3024,0.3024,0.3024,0,0.3065,0.3078,0.3101,0.3096,0.31,0.3123,0.3098,0.3105,0.3086,0.3072,0.3095,0.3087,0.3091,0.3097,0.3081,0.3124,0.3113,0.309,0.3055,0.3111,0.313,0.3137,0.3029,0.3028,0.3027,0.3026,0,0,0.3177,0.3153,0.3162,0.3158,0.3145,0.3156,0.3175,0.3177,0.3183,0.3182,0.3196,0.321,0.3187,0.3188,0.317,0.3186,0.3235,0.3159,0.3159,0.3172,0.328,0.3298,0.3307,0.3219,0.322,0.3222,0.328,0,0.3245,0.3276,0.325,0.3285,0.3296,0.3257,0.3274,0.3268,0.3255,0.3262,0.3247,0.3257,0.3227,0.3227,0.324,0.3226,0.3256,0.3222,0.3232,0.3232,0.3233,0.3317,0.3337,0.3392,0.3287,0.3289,0.3289,0,0.3329,0.3328,0.3364,0.3345,0.3349,0.3364,0.3362,0.337,0.3361,0.335,0.3349,0.3325,0.3342,0.3307,0.3328,0.3305,0.3307,0.3301,0.3302,0.3302,0.3264,0.3318,0.341,0.3418,0.3301,0.33,0.3299,0,0.3405,0.3413,0.3434,0.3432,0.3412,0.3423,0.3415,0.3404,0.3406,0.3404,0.3404,0.3406,0.3406,0.3407,0.3383,0.3361,0.3406,0.3371,0.3397,0.3398,0.3409,0.3409,0.3501,0.3412,0.3412,0.3411,0.3411,0,0.3483,0.3506,0.3467,0.3481,0.3505,0.3474,0.3498,0.3486,0.3476,0.3486,0.3453,0.3463,0.3431,0.3437,0.3418,0.3437,0.3438,0.3429,0.3424,0.3432,0.3433,0.3433,0.3428,0.3414,0.3413,0.3413,0.3412,0,0.3573,0.3548,0.3568,0.3545,0.354,0.3558,0.3539,0.355,0.3533,0.3545,0.3546,0.352,0.3525,0.3501,0.3503,0.349,0.3518,0.3507,0.352,0.3517,0.3544,0.3541,0.3639,0.3649,0.3555,0.3555,0.3556,0,0.3624,0.364,0.3618,0.3621,0.3614,0.362,0.3621,0.359,0.3592,0.358,0.3592,0.3594,0.3594,0.3603,0.3584,0.3584,0.3572,0.3606,0.3572,0.3578,0.3571,0.357,0.357,0.3614,0.3615,0.3616,0.3617,0,0.3717,0.3702,0.3704,0.37,0.3701,0.3697,0.3691,0.3696,0.3662,0.3665,0.3669,0.3668,0.3668,0.3669,0.3665,0.3656,0.363,0.3627,0.3633,0.3641,0.3648,0.3643,0.3539,0.3625,0.3625,0.3624,0.3623,0.3623,0.3787,0.3799,0.3784,0.3785,0.3777,0.3771,0.3779,0.3761,0.3763,0.3759,0.3741,0.3747,0.3734,0.3725,0.3718,0.3722,0.3706,0.3715,0.3717,0.372,0.3723,0.3647,0.3722,0.3721,0.3721,0.3721,0.3721,0,0.3877,0.3864,0.3866,0.3857,0.3858,0.3831,0.3822,0.3825,0.383,0.382,0.3819,0.3821,0.3821,0.3801,0.3798,0.3805,0.3793,0.3806,0.3805,0.3802,0.3739,0.3734,0.3815,0.3815,0.3815,0.3815,0.3815,0.3815,0.3924,0.394,0.3924,0.3935,0.3922,0.3926,0.3923,0.3917,0.3908,0.3911,0.391,0.3896,0.3881,0.3877,0.3875,0.3869,0.3869,0.3885,0.3875,0.3817,0.3807,0.3799,0.3793,0.3886,0.3886,0.3938,0.3938,0.3938]},{"header":{"parameterUnit":"m.s-1","parameterCategory":1,"la1":30.2991,"la2":30.254,"lo1":-89.0895,"lo2":-89.0444,"dy":0.0017,"dx":0.0017,"nx":28,"ny":28,"refTime":"2024-08-16T03:00:00:Z","depth":0,"parameterNumber":3,"parameterNumberName":"V-component_of_WINDS"},"data":[0,0,0,0,0,0,0,0,0,0,0,0,0,0,0,0,0,0,0,0,0,0,0,0,0,0,0,0,0,0,0,0,0,0,0,0,0,0,0,0,0,0,0,0,0,0,0,0,0,0,0,0,0,0,0,0,0,0,3.881,3.8809,0,3.873,3.8729,3.8728,3.8729,3.873,3.8731,3.8732,3.8643,3.8639,3.8636,0,0,0,0,0,0,0,0,0,0,0,0,0,3.8956,3.8953,3.881,3.8809,3.8808,3.873,3.8729,3.8728,3.8729,3.873,3.8732,3.8733,3.8644,3.864,3.8636,0,0,0,0,0,0,0,0,0,0,0,0,0,3.8885,3.8952,3.881,3.8799,3.8798,3.873,3.8729,3.8727,3.8729,3.873,3.8732,3.8733,3.8645,3.864,3.8635,3.8571,0,0,3.862,3.8617,0,0,0,0,0,0,0,0,3.8889,3.888,3.8802,3.88,3.8798,3.8741,3.8747,3.8675,3.8728,3.8755,3.8732,3.8734,3.8674,3.8666,3.8647,3.8567,3.8563,3.8619,3.8616,3.8614,3.8612,0,0,0,0,0,0,0,3.8894,3.8883,3.8778,3.8801,3.8798,3.8796,3.8788,3.8734,3.8706,3.8752,3.8752,3.8743,3.8673,3.8652,3.8645,3.8562,3.8619,3.8615,3.8612,3.861,3.8421,3.8419,0,0,0,0,0,0,3.8903,3.8888,3.8781,3.8776,3.8849,3.8792,3.8783,3.8758,3.8706,3.87,3.8742,3.8744,3.866,3.8651,3.8642,3.8561,3.8614,3.8609,3.8606,3.8423,3.842,3.8418,0,0,0,0,0,0,3.8906,3.8893,3.8784,3.8832,3.8818,3.8788,3.8759,3.8755,3.8735,3.8699,3.8693,3.8727,3.8661,3.8649,3.8588,3.8558,3.8607,3.8602,3.8425,3.8422,3.8419,3.84,0,0,0,0,0,0,3.891,3.8894,3.8871,3.8831,3.8815,3.8734,3.8758,3.8752,3.8727,3.8728,3.8683,3.8677,3.8662,3.8596,3.8583,3.8552,3.8598,3.8427,3.8424,3.842,3.8403,3.8397,3.8392,0,0,0,0,0,3.8915,3.8868,3.887,3.8857,3.8786,3.8732,3.8723,3.8708,3.8725,3.87,3.8676,3.8678,3.8564,3.859,3.8576,3.8542,3.8429,3.8425,3.842,3.8406,3.8398,3.8392,0,0,0,0,0,0,3.8903,3.8863,3.8865,3.8804,3.8772,3.8733,3.8701,3.8701,3.8662,3.8664,3.8646,3.8636,3.8574,3.8553,3.8582,3.8476,3.8498,3.8491,3.8492,3.8484,3.8479,3.8484,3.8594,0,0,0,0,0,3.8894,3.8856,3.8822,3.8771,3.8755,3.8731,3.8707,3.8699,3.8664,3.8649,3.8621,3.8585,3.8541,3.8512,3.8469,3.8401,3.8389,3.8371,3.8365,3.836,3.8353,3.8312,3.8303,3.8404,3.8404,3.8404,0,0,3.8874,3.8847,3.8823,3.8768,3.8742,3.87,3.8719,3.8675,3.8642,3.8642,3.8582,3.8561,3.8519,3.8453,3.8423,3.8433,3.8323,3.8355,3.8351,3.8346,3.8306,3.8297,3.8288,3.8401,3.8401,3.8402,0,0,3.8815,3.8792,3.8746,3.872,3.8682,3.8666,3.8655,3.8615,3.8601,3.8542,3.854,3.85,3.8426,3.8395,3.837,3.8298,3.8297,3.8285,3.8253,3.8213,3.8205,3.8198,3.8169,3.8159,3.8278,3.8278,3.8278,0,3.8793,3.8733,3.8722,3.8677,3.8651,3.8652,3.8603,3.8578,3.8526,3.8507,3.852,3.8425,3.8396,3.8322,3.8305,3.8285,3.8269,3.8289,3.8208,3.82,3.8193,3.8165,3.8155,3.8277,3.8277,3.8277,3.8277,0,3.8707,3.8664,3.8632,3.8584,3.8555,3.8508,3.8488,3.8459,3.8453,3.8435,3.8373,3.834,3.8289,3.8272,3.8265,3.8196,3.8203,3.8212,3.8234,3.8182,3.8156,3.8145,3.8275,3.8275,3.8276,3.8276,0,0,3.8636,3.8584,3.8572,3.8549,3.8506,3.8472,3.8424,3.8377,3.8351,3.8315,3.8272,3.8209,3.8217,3.8188,3.8178,3.8144,3.8085,3.8156,3.8155,3.8142,3.8002,3.7994,3.7982,3.8086,3.8084,3.8082,3.8005,0,3.8571,3.8488,3.8477,3.8403,3.8362,3.8361,3.8319,3.8286,3.8268,3.8228,3.8207,3.8161,3.8177,3.8159,3.8125,3.81,3.8056,3.8105,3.8041,3.8039,3.8049,3.7968,3.7959,3.7888,3.7995,3.7993,3.7992,0,3.8483,3.8446,3.8368,3.833,3.8312,3.8274,3.8229,3.8192,3.8154,3.8143,3.8111,3.8105,3.8052,3.8078,3.8003,3.8036,3.801,3.7993,3.799,3.7981,3.801,3.7954,3.7866,3.7854,3.7976,3.7977,3.7978,0,3.8435,3.8367,3.8311,3.8292,3.8246,3.8219,3.8198,3.8162,3.8134,3.8094,3.8074,3.8028,3.8002,3.7964,3.7945,3.7966,3.787,3.7895,3.7855,3.7856,3.7833,3.7834,3.7736,3.7821,3.7821,3.7821,3.7822,0,3.8361,3.8313,3.8289,3.8254,3.8199,3.8185,3.813,3.811,3.8077,3.8036,3.8033,3.7993,3.7972,3.7928,3.7913,3.7851,3.784,3.7826,3.7822,3.7825,3.7826,3.7805,3.7808,3.7818,3.7819,3.782,3.782,0,3.8298,3.8281,3.8219,3.8181,3.817,3.8131,3.8097,3.8061,3.8044,3.7991,3.7978,3.7949,3.7897,3.7875,3.7812,3.7801,3.7729,3.773,3.7742,3.774,3.7701,3.7703,3.7583,3.7565,3.7665,3.7664,3.7663,0,3.8251,3.8214,3.8172,3.8145,3.8124,3.8081,3.8053,3.8037,3.8007,3.796,3.7929,3.7879,3.7837,3.7755,3.7726,3.7676,3.7674,3.7635,3.7666,3.7669,3.7669,3.767,3.7665,3.7628,3.7627,3.7627,3.7626,0,3.8167,3.816,3.8121,3.8077,3.8044,3.8008,3.7973,3.7951,3.793,3.7896,3.7844,3.7812,3.7748,3.7696,3.7645,3.762,3.7617,3.7617,3.7604,3.7605,3.7612,3.7605,3.7723,3.7619,3.762,3.762,3.762,3.7621,3.8108,3.8074,3.8039,3.7994,3.7967,3.7934,3.7898,3.7877,3.7834,3.7782,3.7775,3.7719,3.768,3.7611,3.7584,3.7538,3.7547,3.753,3.7525,3.752,3.7516,3.7623,3.7529,3.7529,3.7529,3.753,3.753,0,3.8021,3.7999,3.7958,3.791,3.7874,3.7879,3.784,3.7809,3.776,3.7725,3.7684,3.7624,3.7573,3.7541,3.7489,3.7458,3.7455,3.7445,3.7445,3.7438,3.7513,3.7527,3.7447,3.7447,3.7447,3.7447,3.7447,3.7447,3.7972,3.7914,3.7903,3.783,3.7807,3.7754,3.7731,3.7699,3.7671,3.7604,3.7563,3.7543,3.7507,3.7453,3.7406,3.7397,3.7377,3.7365,3.7356,3.7425,3.7434,3.7442,3.7455,3.7361,3.7361,3.7285,3.7285,3.7284]}]]